New Bern, NC

7:19 PM EDT on April 26, 2018 (GMT -0400)
Craven County Regional

Weather History for KEWN - November, 2012

Change the Weather History Date:

Monday, November 12, 2012

  Actual Average Record
Temperature  
Mean Temperature 63 °F 56 °F  
Max Temperature 78 °F 68 °F 83 °F (1989)
Min Temperature 48 °F 45 °F 27 °F (1973)
Degree Days  
Heating Degree Days 2 9  
Month to date heating degree days 169 96  
Since 1 July heating degree days 271 213  
Cooling Degree Days 0 1  
Month to date cooling degree days 0 12  
Year to date cooling degree days 2025 1897  
Growing Degree Days 12 (Base 50)    
Moisture  
Dew Point 55 °F    
Average Humidity 80    
Maximum Humidity 100    
Minimum Humidity 60    
Precipitation  
Precipitation 0.17 in 0.11 in 2.86 in (2009)
Month to date precipitation 0.52 1.31  
Year to date precipitation 47.28 47.26  
Snow  
Snow 0.00 in - - ()
Month to date snowfall 0.0  
Since 1 July snowfall 0.0  
Snow Depth 0.00 in    
Sea Level Pressure  
Sea Level Pressure 30.38 in    
Wind  
Wind Speed 4 mph (SSE)    
Max Wind Speed 15 mph    
Max Gust Speed 20 mph    
Visibility 5 miles    
Events Fog , Rain    
T = Trace of Precipitation, MM = Missing Value Source: NWS Daily Summary

Daily Weather History Graph

Daily Weather History Graph

Search for Another Location

Airport or City:

Astronomy

Nov. 12, 2012 Rise Set
Actual Time 6:40 AM EST 5:04 PM EST
Civil Twilight 6:13 AM EST 5:30 PM EST
Nautical Twilight 5:42 AM EST 6:01 PM EST
Astronomical Twilight 5:13 AM EST 6:31 PM EST
Moon 5:05 AM EST (11/12) 4:06 PM EST (11/12)
Length of Visible Light 11h 17m
Length of Day
10h 23m
Waning Crescent, 2% of the Moon is Illuminated
Nov 12
Waning Crescent
Nov 13
New
Nov 20
First Quarter
Nov 28
Full
Dec 6
Last Quarter

Hourly Weather History & Observations

Time (EST) Temp. Dew Point Humidity Pressure Visibility Wind Dir Wind Speed Gust Speed Precip Events Conditions
12:14 AM 48.2 °F 46.4 °F 93% 30.47 in 1.0 mi Calm Calm - N/A   Mist
12:16 AM 48.2 °F 46.4 °F 93% 30.47 in 2.0 mi Calm Calm - N/A   Partly Cloudy
12:31 AM 48.2 °F 48.2 °F 100% 30.46 in 1.5 mi Calm Calm - N/A   Clear
12:41 AM 48.2 °F 46.4 °F 93% 30.46 in 0.8 mi Calm Calm - N/A   Clear
12:51 AM 48.2 °F 48.2 °F 100% 30.45 in 2.0 mi Calm Calm - N/A   Clear
12:52 AM 48.2 °F 48.2 °F 100% 30.45 in 3.0 mi Calm Calm - N/A   Clear
12:54 AM 48.9 °F 48.0 °F 97% 30.45 in 5.0 mi Calm Calm - N/A   Clear
1:07 AM 50.0 °F 48.2 °F 94% 30.45 in 2.5 mi Calm Calm - N/A   Clear
1:15 AM 51.8 °F 48.2 °F 88% 30.45 in 7.0 mi ESE 3.5 mph - N/A   Clear
1:54 AM 57.0 °F 54.0 °F 89% 30.43 in 10.0 mi ESE 5.8 mph - N/A   Clear
2:54 AM 52.0 °F 51.1 °F 97% 30.43 in 5.0 mi Calm Calm - N/A   Clear
3:34 AM 51.8 °F 51.8 °F 100% 30.42 in 0.8 mi Calm Calm - N/A   Clear
3:49 AM 51.8 °F 51.8 °F 100% 30.42 in 1.0 mi Calm Calm - N/A   Clear
3:54 AM 51.1 °F 50.0 °F 96% 30.41 in 0.8 mi Calm Calm - N/A   Clear
3:59 AM 51.8 °F 50.0 °F 94% 30.41 in 2.0 mi East 3.5 mph - N/A   Clear
4:06 AM 51.8 °F 48.2 °F 88% 30.41 in 6.0 mi Calm Calm - N/A   Clear
4:48 AM 51.8 °F 51.8 °F 100% 30.42 in 1.8 mi Calm Calm - N/A   Clear
4:54 AM 51.1 °F 50.0 °F 96% 30.42 in 0.8 mi Calm Calm - N/A   Clear
5:02 AM 50.0 °F 50.0 °F 100% 30.42 in 0.5 mi Calm Calm - N/A Fog Fog
5:23 AM 50.0 °F 50.0 °F 100% 30.41 in 0.2 mi Calm Calm - N/A Fog Fog
5:27 AM 50.0 °F 48.2 °F 94% 30.41 in 0.2 mi Calm Calm - N/A Fog Fog
5:33 AM 51.8 °F 51.8 °F 100% 30.41 in 0.8 mi Calm Calm - N/A   Mist
5:43 AM 50.0 °F 50.0 °F 100% 30.41 in 0.5 mi Calm Calm - N/A Fog Fog
5:54 AM 50.0 °F 48.9 °F 96% 30.42 in 8.0 mi Calm Calm - N/A Fog Shallow Fog
6:54 AM 50.0 °F 50.0 °F 100% 30.42 in 8.0 mi Calm Calm - N/A Fog Shallow Fog
7:54 AM 55.9 °F 55.0 °F 97% 30.42 in 8.0 mi Calm Calm - N/A Fog Shallow Fog
8:54 AM 63.0 °F 57.9 °F 84% 30.42 in 10.0 mi East 4.6 mph - N/A   Partly Cloudy
9:54 AM 69.1 °F 60.1 °F 73% 30.41 in 10.0 mi Calm Calm - N/A   Clear
10:54 AM 73.0 °F 61.0 °F 66% 30.39 in 10.0 mi SE 8.1 mph - N/A   Clear
11:54 AM 73.9 °F 61.0 °F 64% 30.37 in 10.0 mi ESE 8.1 mph - N/A   Scattered Clouds
12:54 PM 73.9 °F 60.1 °F 62% 30.34 in 10.0 mi SE 6.9 mph - N/A   Mostly Cloudy
1:54 PM 75.9 °F 60.1 °F 58% 30.32 in 10.0 mi ESE 9.2 mph - N/A   Mostly Cloudy
2:54 PM 75.9 °F 61.0 °F 60% 30.30 in 10.0 mi SE 6.9 mph - N/A   Mostly Cloudy
3:54 PM 73.9 °F 62.1 °F 66% 30.29 in 10.0 mi SSE 9.2 mph - N/A   Mostly Cloudy
4:54 PM 72.0 °F 62.1 °F 71% 30.29 in 10.0 mi SSE 4.6 mph - N/A   Overcast
5:41 PM 66.2 °F 64.4 °F 94% 30.29 in 1.8 mi SSW 12.7 mph 19.6 mph 0.11 in Rain Heavy Rain
5:47 PM 66.2 °F 64.4 °F 94% 30.29 in 1.5 mi SSW 6.9 mph 19.6 mph 0.15 in Rain Heavy Rain
5:54 PM 66.0 °F 64.9 °F 96% 30.28 in 3.0 mi SW 6.9 mph - 0.16 in Rain Rain
6:01 PM 66.2 °F 64.4 °F 94% 30.28 in 6.0 mi SSW 3.5 mph - 0.00 in Rain Light Rain
6:35 PM 66.2 °F 64.4 °F 94% 30.29 in 10.0 mi SSW 4.6 mph - 0.01 in   Overcast
6:54 PM 66.0 °F 64.0 °F 93% 30.30 in 9.0 mi South 10.4 mph - 0.01 in Rain Light Rain
7:54 PM 64.9 °F 62.1 °F 90% 30.28 in 10.0 mi Variable 3.5 mph - 0.00 in   Overcast
8:54 PM 64.9 °F 62.1 °F 90% 30.27 in 10.0 mi SSE 3.5 mph - N/A   Overcast
9:54 PM 64.9 °F 63.0 °F 93% 30.26 in 10.0 mi South 4.6 mph - N/A   Mostly Cloudy